Location: Asheville, NC
(35.6000°N, 82.5500°W)
Time: 10:57:21
(UTC-04:00)

Vanguard 1 Rocket - Pass Details

Date: 15 February 2018
Orbit: 652 x 4225 km, 34.3° (Epoch: 24 May)

Event Time Altitude Azimuth Distance (km) Brightness Sun altitude
Rises 01:36:57 0° 252° (WSW) 7,651 - -64.2°
Reaches altitude 10° 01:41:38 10° 252° (WSW) 6,920 - -63.7°
Maximum altitude 02:07:36 83° 169° (SSE) 4,155 - -60.4°
Exits shadow 02:13:39 64° 94° (E) 4,221 10.4 -59.5°
Drops below altitude 10° 02:29:24 10° 85° (E) 6,005 11.8 -57.0°
Sets 02:33:07 0° 85° (E) 6,658 12.2 -56.4°
